[[{"header":{"parameterUnit":"m.s-1","parameterCategory":1,"la1":30.2992,"la2":30.254,"lo1":-89.0895,"lo2":-89.0443,"dy":0.0025,"dx":0.0025,"nx":19,"ny":19,"refTime":"2026-03-27T21:00:00:Z","depth":0,"parameterNumber":2,"parameterNumberName":"U-component_of_WINDS"},"data":[0,0,0,-2.7096,-2.7099,-2.7214,-2.7215,-2.737,-2.7372,0,0,0,0,0,0,0,0,0,0,0,-2.7068,-2.7069,-2.7096,-2.7099,-2.7214,-2.7215,-2.737,-2.7372,0,0,0,0,0,0,0,0,0,0,0,-2.7067,-2.7069,-2.7071,-2.7099,-2.7214,-2.7215,-2.737,-2.728,0,0,0,0,0,0,0,0,0,0,-2.7166,-2.7146,-2.7069,-2.7071,-2.71,-2.7214,-2.7215,-2.7275,-2.7285,-2.7322,0,-2.7357,0,-2.7367,-2.7383,-2.7384,0,0,0,-2.7094,-2.7138,-2.7163,-2.7071,-2.7101,-2.7214,-2.7161,-2.7281,-2.7292,-2.7335,-2.7359,-2.7365,-2.737,-2.7384,-2.7385,-2.7615,-2.7616,0,0,-2.7088,-2.7092,-2.7156,-2.7171,-2.7155,-2.7157,-2.7165,-2.7287,-2.7313,-2.736,-2.7368,-2.7372,-2.7385,-2.7386,-2.7613,-2.7615,0,0,0,-2.7073,-2.7088,-2.711,-2.7165,-2.7185,-2.7161,-2.7169,-2.7308,-2.7315,-2.737,-2.7374,-2.7386,-2.7388,-2.7612,-2.7614,-2.7683,0,0,0,-2.7069,-2.7079,-2.7108,-2.7111,-2.7183,-2.7248,-2.7187,-2.7306,-2.732,-2.7373,-2.7386,-2.739,-2.761,-2.7613,-2.7678,-2.7716,0,0,0,-2.7058,-2.7077,-2.7096,-2.7111,-2.7161,-2.7246,-2.726,-2.7309,-2.7323,-2.7384,-2.739,-2.7609,-2.7612,-2.7674,-2.7709,-2.7779,0,0,0,-2.7048,-2.7156,-2.7098,-2.7219,-2.716,-2.7288,-2.7259,-2.7354,-2.7414,-2.7387,-2.7611,-2.7614,-2.7673,-2.7704,-2.7774,-2.784,-2.7867,0,0,-2.7186,-2.7173,-2.7244,-2.7195,-2.7335,-2.727,-2.742,-2.747,-2.7471,-2.7566,-2.7572,-2.768,-2.7708,-2.7778,-2.8016,-2.8038,0,0,0,-2.7289,-2.734,-2.7376,-2.7434,-2.7475,-2.7514,-2.7541,-2.756,-2.764,-2.7521,-2.7723,-2.774,-2.778,-2.7812,-2.783,-2.7865,-2.7628,-2.7627,-2.7627,-2.7492,-2.7488,-2.7605,-2.7615,-2.7671,-2.7697,-2.7742,-2.7772,-2.7751,-2.7798,-2.7827,-2.7972,-2.8009,-2.8023,-2.806,-2.786,-2.786,-2.786,-2.7861,-2.7695,-2.7768,-2.7737,-2.784,-2.7834,-2.792,-2.7949,-2.7931,-2.801,-2.795,-2.7986,-2.7923,-2.8047,-2.8079,-2.7866,-2.7865,-2.7864,-2.7864,-2.7863,-2.783,-2.7864,-2.7884,-2.7967,-2.8031,-2.8035,-2.8113,-2.8104,-2.8096,-2.8131,-2.8161,-2.816,-2.8159,-2.8145,-2.8146,-2.8146,-2.8147,-2.8147,-2.8148,-2.7962,-2.7983,-2.805,-2.8102,-2.8137,-2.8183,-2.8209,-2.8243,-2.8279,-2.8266,-2.8266,-2.8241,-2.8059,-2.8015,-2.8155,-2.8154,-2.8153,-2.8152,-2.8152,-2.8174,-2.8124,-2.8228,-2.8264,-2.8323,-2.8387,-2.8374,-2.8444,-2.8471,-2.8509,-2.8475,-2.8342,-2.8327,-2.8312,-2.8276,-2.8475,-2.8475,-2.8475,-2.8475,-2.8289,-2.828,-2.8384,-2.8442,-2.8496,-2.8495,-2.8611,-2.8631,-2.8644,-2.866,-2.8629,-2.8578,-2.8563,-2.8558,-2.8538,-2.8504,-2.8757,-2.8757,-2.8757,-2.842,-2.8416,-2.8518,-2.853,-2.8575,-2.8614,-2.8723,-2.8789,-2.8793,-2.8768,-2.8672,-2.866,-2.8579,-2.8552,-2.8529,-2.8498,-2.8435,0,0]},{"header":{"parameterUnit":"m.s-1","parameterCategory":1,"la1":30.2992,"la2":30.254,"lo1":-89.0895,"lo2":-89.0443,"dy":0.0025,"dx":0.0025,"nx":19,"ny":19,"refTime":"2026-03-27T21:00:00:Z","depth":0,"parameterNumber":3,"parameterNumberName":"V-component_of_WINDS"},"data":[0,0,0,-9.4034,-9.4038,-9.4246,-9.4246,-9.4524,-9.4527,0,0,0,0,0,0,0,0,0,0,0,-9.3985,-9.3987,-9.4033,-9.4039,-9.4245,-9.4246,-9.4524,-9.4527,0,0,0,0,0,0,0,0,0,0,0,-9.3984,-9.3987,-9.399,-9.404,-9.4245,-9.4246,-9.4523,-9.4361,0,0,0,0,0,0,0,0,0,0,-9.4157,-9.4126,-9.3986,-9.399,-9.4041,-9.4245,-9.4246,-9.4353,-9.4371,-9.4438,0,-9.4505,0,-9.4521,-9.4547,-9.4548,0,0,0,-9.4028,-9.4111,-9.4156,-9.399,-9.4043,-9.4245,-9.4149,-9.4363,-9.4384,-9.4462,-9.4508,-9.4518,-9.4525,-9.4549,-9.455,-9.4982,-9.4985,0,0,-9.4016,-9.4028,-9.4142,-9.417,-9.4144,-9.4143,-9.4156,-9.4375,-9.4424,-9.4509,-9.4524,-9.453,-9.4551,-9.4553,-9.498,-9.4983,0,0,0,-9.3991,-9.402,-9.4059,-9.4159,-9.4196,-9.4149,-9.4164,-9.4415,-9.4427,-9.4527,-9.4533,-9.4552,-9.4556,-9.4977,-9.4981,-9.512,0,0,0,-9.3984,-9.4006,-9.4055,-9.4064,-9.4192,-9.4309,-9.4199,-9.4412,-9.4436,-9.4532,-9.4553,-9.4559,-9.4974,-9.4979,-9.5111,-9.5184,0,0,0,-9.3967,-9.4003,-9.4038,-9.4064,-9.4154,-9.4305,-9.4329,-9.4417,-9.444,-9.4548,-9.456,-9.4973,-9.4978,-9.5102,-9.5169,-9.5302,0,0,0,-9.3951,-9.4156,-9.4041,-9.4271,-9.4153,-9.4391,-9.4328,-9.4503,-9.4612,-9.4554,-9.4975,-9.4981,-9.5099,-9.516,-9.5293,-9.5417,-9.547,0,0,-9.4216,-9.4188,-9.4323,-9.4226,-9.4489,-9.4358,-9.4639,-9.4725,-9.4722,-9.4894,-9.4905,-9.5114,-9.5168,-9.53,-9.5761,-9.5803,0,0,0,-9.4411,-9.4508,-9.4575,-9.4682,-9.4756,-9.4824,-9.4867,-9.4899,-9.5046,-9.4815,-9.5197,-9.5229,-9.5305,-9.5364,-9.54,-9.5465,-9.5008,-9.5008,-9.5007,-9.4801,-9.479,-9.5012,-9.5027,-9.5131,-9.5174,-9.5256,-9.5305,-9.526,-9.5351,-9.5402,-9.5684,-9.5753,-9.578,-9.5848,-9.5466,-9.5466,-9.5467,-9.5467,-9.5188,-9.5324,-9.5263,-9.5457,-9.5443,-9.5603,-9.5652,-9.5615,-9.576,-9.5643,-9.571,-9.5585,-9.5827,-9.5885,-9.5478,-9.5476,-9.5475,-9.5474,-9.5473,-9.5443,-9.5506,-9.5545,-9.57,-9.5819,-9.5824,-9.5968,-9.5948,-9.5929,-9.5996,-9.6048,-9.6046,-9.6041,-9.6022,-9.6023,-9.6024,-9.6025,-9.6026,-9.6026,-9.5693,-9.5732,-9.5858,-9.5956,-9.6022,-9.6107,-9.6153,-9.6216,-9.6281,-9.6254,-9.6254,-9.6201,-9.5853,-9.5767,-9.6042,-9.6039,-9.6037,-9.6035,-9.6034,-9.6091,-9.5998,-9.6194,-9.6262,-9.6374,-9.6494,-9.6467,-9.6598,-9.6647,-9.6719,-9.6651,-9.6397,-9.6366,-9.6337,-9.6265,-9.6653,-9.6653,-9.6653,-9.6653,-9.6307,-9.629,-9.6487,-9.6596,-9.67,-9.6697,-9.6915,-9.6951,-9.6973,-9.7003,-9.6943,-9.6846,-9.6818,-9.6803,-9.6764,-9.6697,-9.7186,-9.7186,-9.7187,-9.6551,-9.6544,-9.6736,-9.6762,-9.6848,-9.6922,-9.7126,-9.725,-9.7255,-9.7208,-9.7025,-9.7002,-9.6845,-9.6795,-9.6744,-9.6684,-9.656,0,0]}]]